When you browse on this site, cookies collect data to enhance your experience and personalize the content and advertising you see.
Visit our Privacy Policy to learn more. By continuing to use the site, you agree to this use of cookies and data.
  • En España
  • Lista de países
  • Para 7 días
  • Temperatura del agua
  • Mapa Satelital
  • El tiempo en el mapa
  • Informadores
  • user-avatar
    Iniciar sesión

    Tiempo cada hora Rehovot

    Hoy, 19 Julio, Viernes

    Tiempo Temperatura Precipitaciones Viento Presión Humedad
    00:00 +25°C° 0 mm 1 mps 753 mmHg 82%
    01:00 +25°C° 0 mm 1 mps 753 mmHg 82%
    02:00 +25°C° 0 mm 1 mps 753 mmHg 82%
    03:00 +25°C° 0 mm 1 mps 753 mmHg 82%
    04:00 +24°C° 0 mm 1 mps 753 mmHg 82%
    05:00 +24°C° 0 mm 1 mps 753 mmHg 82%
    06:00 +26°C° 0 mm 2 mps 754 mmHg 75%
    07:00 +27°C° 0 mm 2 mps 754 mmHg 67%
    08:00 +29°C° 0 mm 2 mps 754 mmHg 60%
    09:00 +30°C° 0 mm 3 mps 754 mmHg 55%
    10:00 +31°C° 0 mm 3 mps 754 mmHg 51%
    11:00 +33°C° 0 mm 4 mps 754 mmHg 46%
    12:00 +33°C° 0 mm 5 mps 753 mmHg 47%
    13:00 +33°C° 0 mm 5 mps 753 mmHg 48%
    14:00 +33°C° 0 mm 6 mps 753 mmHg 48%
    15:00 +33°C° 0 mm 6 mps 753 mmHg 51%
    16:00 +32°C° 0 mm 5 mps 753 mmHg 54%
    17:00 +30°C° 0 mm 5 mps 753 mmHg 57%
    18:00 +29°C° 0 mm 4 mps 753 mmHg 64%
    19:00 +27°C° 0 mm 3 mps 753 mmHg 70%
    20:00 +26°C° 0 mm 2 mps 753 mmHg 76%
    21:00 +25°C° 0 mm 2 mps 753 mmHg 78%
    22:00 +25°C° 0 mm 1 mps 753 mmHg 79%
    23:00 +24°C° 0 mm 1 mps 754 mmHg 81%

    Mañana, 20 Julio, Sábado

    Tiempo Temperatura Precipitaciones Viento Presión Humedad
    00:00 +24°C° 0 mm 1 mps 753 mmHg 81%
    01:00 +24°C° 0 mm 1 mps 753 mmHg 81%
    02:00 +23°C° 0 mm 1 mps 753 mmHg 82%
    03:00 +23°C° 0 mm 1 mps 753 mmHg 83%
    04:00 +23°C° 0 mm 1 mps 753 mmHg 84%
    05:00 +23°C° 0 mm 2 mps 753 mmHg 84%
    06:00 +25°C° 0 mm 2 mps 753 mmHg 78%
    07:00 +26°C° 0 mm 2 mps 754 mmHg 72%
    08:00 +28°C° 0 mm 2 mps 754 mmHg 66%
    09:00 +29°C° 0 mm 2 mps 754 mmHg 60%
    10:00 +31°C° 0 mm 3 mps 754 mmHg 54%
    11:00 +33°C° 0 mm 4 mps 754 mmHg 48%
    12:00 +33°C° 0 mm 5 mps 753 mmHg 48%
    13:00 +33°C° 0 mm 5 mps 753 mmHg 48%
    14:00 +33°C° 0 mm 5 mps 753 mmHg 48%
    15:00 +32°C° 0 mm 5 mps 753 mmHg 52%
    16:00 +32°C° 0 mm 5 mps 752 mmHg 55%
    17:00 +30°C° 0 mm 5 mps 752 mmHg 59%
    18:00 +28°C° 0 mm 4 mps 753 mmHg 66%
    19:00 +27°C° 0 mm 3 mps 753 mmHg 73%
    20:00 +26°C° 0 mm 2 mps 753 mmHg 80%
    21:00 +25°C° 0 mm 1 mps 753 mmHg 81%
    22:00 +24°C° 0 mm 1 mps 753 mmHg 82%
    23:00 +24°C° 0 mm 1 mps 753 mmHg 82%

    Pasado mañana, 21 Julio, Domingo

    Tiempo Temperatura Precipitaciones Viento Presión Humedad
    00:00 +24°C° 0 mm 1 mps 753 mmHg 83%
    01:00 +24°C° 0 mm 1 mps 753 mmHg 83%
    02:00 +23°C° 0 mm 1 mps 752 mmHg 84%
    03:00 +23°C° 0 mm 1 mps 752 mmHg 85%
    04:00 +23°C° 0 mm 1 mps 752 mmHg 85%
    05:00 +23°C° 0 mm 2 mps 752 mmHg 86%
    06:00 +25°C° 0 mm 2 mps 753 mmHg 78%
    07:00 +27°C° 0 mm 1 mps 753 mmHg 71%
    08:00 +28°C° 0 mm 1 mps 753 mmHg 64%
    09:00 +30°C° 0 mm 2 mps 753 mmHg 58%
    10:00 +31°C° 0 mm 3 mps 753 mmHg 52%
    11:00 +34°C° 0 mm 3 mps 752 mmHg 46%
    12:00 +34°C° 0 mm 4 mps 752 mmHg 47%
    13:00 +34°C° 0 mm 5 mps 752 mmHg 49%
    14:00 +34°C° 0 mm 6 mps 751 mmHg 50%
    15:00 +33°C° 0 mm 6 mps 751 mmHg 54%
    16:00 +32°C° 0 mm 6 mps 751 mmHg 57%
    17:00 +32°C° 0 mm 6 mps 751 mmHg 61%
    18:00 +29°C° 0 mm 5 mps 751 mmHg 68%
    19:00 +28°C° 0 mm 4 mps 752 mmHg 75%
    20:00 +27°C° 0 mm 3 mps 752 mmHg 83%
    21:00 +26°C° 0 mm 2 mps 752 mmHg 84%
    22:00 +25°C° 0 mm 2 mps 752 mmHg 84%
    23:00 +25°C° 0 mm 1 mps 752 mmHg 85%

    22 Julio, Lunes

    Tiempo Temperatura Precipitaciones Viento Presión Humedad
    00:00 +25°C° 0 mm 1 mps 751 mmHg 86%
    01:00 +24°C° 0 mm 1 mps 751 mmHg 87%
    02:00 +24°C° 0 mm 1 mps 751 mmHg 87%
    03:00 +24°C° 0 mm 1 mps 751 mmHg 88%
    04:00 +24°C° 0 mm 1 mps 751 mmHg 88%
    05:00 +24°C° 0 mm 1 mps 751 mmHg 89%
    06:00 +26°C° 0 mm 1 mps 751 mmHg 81%
    07:00 +27°C° 0 mm 1 mps 751 mmHg 72%
    08:00 +29°C° 0 mm 1 mps 751 mmHg 64%
    09:00 +31°C° 0 mm 2 mps 751 mmHg 59%
    10:00 +34°C° 0 mm 3 mps 751 mmHg 53%
    11:00 +35°C° 0 mm 5 mps 751 mmHg 47%
    12:00 +35°C° 0 mm 5 mps 750 mmHg 48%
    13:00 +35°C° 0 mm 6 mps 750 mmHg 49%
    14:00 +35°C° 0 mm 6 mps 749 mmHg 51%
    15:00 +35°C° 0 mm 6 mps 749 mmHg 53%
    16:00 +34°C° 0 mm 6 mps 749 mmHg 55%
    17:00 +33°C° 0 mm 6 mps 749 mmHg 57%
    18:00 +30°C° 0 mm 5 mps 749 mmHg 66%
    19:00 +29°C° 0 mm 4 mps 749 mmHg 75%
    20:00 +27°C° 0 mm 2 mps 749 mmHg 83%
    21:00 +27°C° 0 mm 2 mps 749 mmHg 83%
    22:00 +26°C° 0 mm 1 mps 749 mmHg 84%
    23:00 +26°C° 0 mm 1 mps 749 mmHg 84%

    23 Julio, Martes

    Tiempo Temperatura Precipitaciones Viento Presión Humedad
    00:00 +26°C° 0 mm 1 mps 749 mmHg 84%
    01:00 +25°C° 0 mm 1 mps 749 mmHg 85%
    02:00 +25°C° 0 mm 1 mps 749 mmHg 85%
    03:00 +25°C° 0 mm 1 mps 749 mmHg 86%
    04:00 +25°C° 0 mm 1 mps 749 mmHg 86%
    05:00 +25°C° 0 mm 1 mps 749 mmHg 87%
    06:00 +27°C° 0 mm 1 mps 749 mmHg 78%
    07:00 +29°C° 0 mm 1 mps 749 mmHg 69%
    08:00 +31°C° 0 mm 1 mps 749 mmHg 61%
    09:00 +32°C° 0 mm 2 mps 749 mmHg 55%
    10:00 +34°C° 0 mm 3 mps 749 mmHg 50%
    11:00 +36°C° 0 mm 4 mps 748 mmHg 44%
    12:00 +36°C° 0 mm 5 mps 748 mmHg 45%
    13:00 +36°C° 0 mm 5 mps 748 mmHg 46%
    14:00 +36°C° 0 mm 6 mps 748 mmHg 47%
    15:00 +35°C° 0 mm 6 mps 748 mmHg 49%
    16:00 +35°C° 0 mm 6 mps 748 mmHg 50%
    17:00 +34°C° 0 mm 6 mps 748 mmHg 52%
    18:00 +32°C° 0 mm 4 mps 748 mmHg 62%
    19:00 +29°C° 0 mm 3 mps 748 mmHg 71%
    20:00 +27°C° 0 mm 2 mps 749 mmHg 81%
    21:00 +27°C° 0 mm 1 mps 749 mmHg 82%
    22:00 +26°C° 0 mm 1 mps 749 mmHg 83%
    23:00 +26°C° 0 mm 1 mps 749 mmHg 85%

    24 Julio, Miércoles

    Tiempo Temperatura Precipitaciones Viento Presión Humedad
    00:00 +25°C° 0 mm 1 mps 749 mmHg 85%
    01:00 +25°C° 0 mm 1 mps 749 mmHg 85%
    02:00 +25°C° 0 mm 1 mps 748 mmHg 86%
    03:00 +25°C° 0 mm 1 mps 749 mmHg 86%
    04:00 +25°C° 0 mm 1 mps 749 mmHg 86%
    05:00 +25°C° 0 mm 2 mps 749 mmHg 86%
    06:00 +27°C° 0 mm 2 mps 749 mmHg 78%
    07:00 +29°C° 0 mm 2 mps 749 mmHg 69%
    08:00 +30°C° 0 mm 2 mps 749 mmHg 61%
    09:00 +33°C° 0 mm 3 mps 749 mmHg 56%
    10:00 +34°C° 0 mm 3 mps 749 mmHg 51%
    11:00 +35°C° 0 mm 4 mps 749 mmHg 46%
    12:00 +35°C° 0 mm 4 mps 749 mmHg 46%
    13:00 +35°C° 0 mm 5 mps 748 mmHg 46%
    14:00 +36°C° 0 mm 5 mps 748 mmHg 46%
    15:00 +35°C° 0 mm 5 mps 748 mmHg 48%
    16:00 +34°C° 0 mm 5 mps 748 mmHg 50%
    17:00 +34°C° 0 mm 5 mps 748 mmHg 52%
    18:00 +32°C° 0 mm 4 mps 748 mmHg 62%
    19:00 +29°C° 0 mm 3 mps 749 mmHg 71%
    20:00 +27°C° 0 mm 2 mps 749 mmHg 80%
    21:00 +27°C° 0 mm 2 mps 749 mmHg 81%
    22:00 +26°C° 0 mm 1 mps 749 mmHg 82%
    23:00 +26°C° 0 mm 1 mps 749 mmHg 83%
    Mostrar más